2025-007K

Last updated on Tue Jan 14 2025 00:02:05 GMT+0000 (Coordinated Universal Time)

1 62584U 25007K 25013.45807082 -.00000209 00000+0 00000+0 0 9994 2 62584 54.9822 126.8746 0010937 287.3294 161.5121 14.75068358 44
UTC large
Height (km)
Speed (km/s)
/
Latitude / Longitude
Inclination (degrees)
Orbital Period (minutes)
Azimuth
Elevation
Range (km)
Doppler Factor

Next 0 passes for location: London (51.5072 / 0.1276)

Sorry there are no passes over London.